TimeCST,TemperatureF,Dew PointF,Humidity,Sea Level PressureIn,VisibilityMPH,Wind Direction,Wind SpeedMPH,Gust SpeedMPH,PrecipitationIn,Events,Conditions,WindDirDegrees,DateUTC
12:15 AM,13.5,9.3,84,30.19,10.0,NNW,8.1,-,N/A,Snow,Light Snow,330,2014-01-15 06:15:00
12:35 AM,13.5,7.7,78,30.19,10.0,NNW,12.7,-,N/A,,Overcast,330,2014-01-15 06:35:00
12:55 AM,13.1,7.3,78,30.18,10.0,NNW,10.4,-,N/A,,Overcast,340,2014-01-15 06:55:00
1:14 AM,12.9,8.1,81,30.18,10.0,WNW,10.4,-,N/A,,Overcast,300,2014-01-15 07:14:00
1:35 AM,12.2,7.7,82,30.17,10.0,WNW,9.2,-,N/A,,Overcast,300,2014-01-15 07:35:00
1:54 AM,12.2,7.3,81,30.18,10.0,NW,8.1,-,N/A,,Overcast,310,2014-01-15 07:54:00
2:15 AM,10.4,5.9,82,30.19,10.0,WNW,8.1,-,N/A,,Overcast,290,2014-01-15 08:15:00
2:34 AM,9.0,4.5,82,30.19,10.0,West,9.2,-,N/A,,Overcast,280,2014-01-15 08:34:00
2:54 AM,5.7,1.6,83,30.19,10.0,West,5.8,-,N/A,,Scattered Clouds,260,2014-01-15 08:54:00
3:15 AM,4.8,1.0,84,30.18,10.0,West,8.1,-,N/A,,Clear,270,2014-01-15 09:15:00
3:34 AM,4.6,1.0,85,30.17,10.0,West,9.2,-,N/A,,Clear,260,2014-01-15 09:34:00
3:55 AM,5.0,1.4,85,30.18,10.0,West,11.5,-,N/A,,Clear,260,2014-01-15 09:55:00
4:15 AM,4.5,0.5,84,30.17,10.0,West,10.4,-,N/A,,Clear,270,2014-01-15 10:15:00
4:35 AM,4.1,0.3,84,30.16,10.0,West,10.4,-,N/A,,Clear,260,2014-01-15 10:35:00
4:54 AM,4.1,0.1,84,30.15,10.0,West,9.2,-,N/A,,Clear,270,2014-01-15 10:54:00
5:15 AM,3.7,-0.4,83,30.14,10.0,West,9.2,-,N/A,,Clear,270,2014-01-15 11:15:00
5:35 AM,3.2,-0.6,84,30.13,10.0,West,9.2,-,N/A,,Clear,260,2014-01-15 11:35:00
5:55 AM,3.2,-0.6,84,30.13,10.0,WSW,6.9,-,N/A,,Clear,250,2014-01-15 11:55:00
6:15 AM,2.3,-1.5,84,30.12,10.0,West,4.6,-,N/A,,Clear,260,2014-01-15 12:15:00
6:34 AM,1.9,-1.8,84,30.10,10.0,West,3.5,-,N/A,,Clear,260,2014-01-15 12:34:00
6:55 AM,1.4,-2.2,85,30.09,10.0,West,3.5,-,N/A,,Clear,260,2014-01-15 12:55:00
7:15 AM,2.8,-1.1,84,30.09,10.0,WSW,6.9,-,N/A,,Clear,250,2014-01-15 13:15:00
7:34 AM,2.8,-1.3,83,30.09,10.0,WSW,5.8,-,N/A,,Clear,250,2014-01-15 13:34:00
7:55 AM,2.3,-2.0,82,30.07,10.0,Calm,Calm,-,N/A,,Clear,0,2014-01-15 13:55:00
8:15 AM,3.6,-0.9,82,30.06,10.0,Calm,Calm,-,N/A,,Clear,0,2014-01-15 14:15:00
8:35 AM,5.4,0.1,79,30.06,10.0,Calm,Calm,-,N/A,,Clear,0,2014-01-15 14:35:00
8:55 AM,7.7,1.4,75,30.05,10.0,SSW,3.5,-,N/A,,Clear,210,2014-01-15 14:55:00
9:14 AM,9.3,2.7,74,30.03,10.0,South,3.5,-,N/A,,Clear,170,2014-01-15 15:14:00
9:35 AM,12.4,3.4,67,30.01,10.0,SSW,3.5,-,N/A,,Clear,210,2014-01-15 15:35:00
9:55 AM,13.6,3.2,63,29.99,10.0,SSW,5.8,-,N/A,,Clear,210,2014-01-15 15:55:00
10:15 AM,14.7,3.4,61,29.99,10.0,SSW,4.6,-,N/A,,Mostly Cloudy,210,2014-01-15 16:15:00
10:35 AM,15.4,4.1,61,29.97,10.0,SW,6.9,-,N/A,,Mostly Cloudy,220,2014-01-15 16:35:00
10:54 AM,15.4,4.5,62,29.97,10.0,SW,10.4,16.1,N/A,,Overcast,230,2014-01-15 16:54:00
11:15 AM,15.8,3.6,59,29.93,10.0,SSW,11.5,20.7,N/A,,Overcast,210,2014-01-15 17:15:00
11:35 AM,17.6,1.2,49,29.89,10.0,South,4.6,-,N/A,,Overcast,190,2014-01-15 17:35:00
11:55 AM,18.0,3.7,54,29.87,10.0,SSW,10.4,-,N/A,,Overcast,210,2014-01-15 17:55:00
12:14 PM,19.0,7.5,61,29.84,10.0,SSW,12.7,17.3,N/A,,Overcast,200,2014-01-15 18:14:00
12:34 PM,18.3,8.2,65,29.80,10.0,SSW,11.5,17.3,N/A,,Overcast,210,2014-01-15 18:34:00
12:55 PM,20.1,10.4,66,29.75,10.0,SSW,16.1,21.9,N/A,,Overcast,200,2014-01-15 18:55:00
1:14 PM,20.5,11.3,68,29.74,10.0,South,12.7,19.6,N/A,,Overcast,190,2014-01-15 19:14:00
1:35 PM,21.6,14.0,73,29.74,10.0,SSW,8.1,18.4,N/A,,Overcast,200,2014-01-15 19:35:00
1:54 PM,21.0,13.3,72,29.73,10.0,SSW,15.0,25.3,N/A,,Overcast,210,2014-01-15 19:54:00
2:15 PM,21.7,14.4,73,29.70,10.0,SSW,10.4,18.4,N/A,,Overcast,200,2014-01-15 20:15:00
2:35 PM,22.1,14.9,74,29.67,10.0,South,13.8,20.7,N/A,,Overcast,190,2014-01-15 20:35:00
2:55 PM,23.4,16.3,75,29.65,10.0,South,12.7,-,N/A,,Overcast,180,2014-01-15 20:55:00
3:14 PM,24.8,17.2,73,29.64,10.0,SSW,12.7,25.3,N/A,,Overcast,200,2014-01-15 21:14:00
3:35 PM,25.2,18.5,76,29.58,5.0,SW,27.6,35.7,N/A,Snow,Light Snow,220,2014-01-15 21:35:00
3:54 PM,25.7,19.2,76,29.59,10.0,SW,25.3,34.5,N/A,,Overcast,230,2014-01-15 21:54:00
4:15 PM,27.5,20.3,74,29.62,10.0,SW,13.8,26.5,N/A,,Overcast,220,2014-01-15 22:15:00
4:35 PM,28.4,21.2,74,29.58,10.0,SW,13.8,23.0,N/A,,Scattered Clouds,220,2014-01-15 22:35:00
4:54 PM,29.3,21.9,74,29.56,10.0,SSW,6.9,-,N/A,,Clear,200,2014-01-15 22:54:00
5:14 PM,30.4,23.0,74,29.54,10.0,WSW,28.8,34.5,N/A,,Clear,240,2014-01-15 23:14:00
5:35 PM,30.4,23.2,75,29.54,10.0,WSW,25.3,36.8,N/A,,Clear,240,2014-01-15 23:35:00
5:55 PM,31.5,24.4,75,29.53,10.0,WSW,23.0,29.9,N/A,,Scattered Clouds,240,2014-01-15 23:55:00
6:14 PM,32.5,25.2,74,29.53,10.0,WSW,24.2,32.2,N/A,,Scattered Clouds,240,2014-01-16 00:14:00
6:35 PM,32.9,26.1,76,29.53,10.0,WSW,26.5,33.4,N/A,,Clear,240,2014-01-16 00:35:00
6:55 PM,34.2,27.1,75,29.55,10.0,WSW,23.0,34.5,N/A,,Scattered Clouds,250,2014-01-16 00:55:00
7:15 PM,37.4,29.3,73,29.53,10.0,West,27.6,41.4,N/A,,Mostly Cloudy,260,2014-01-16 01:15:00
7:34 PM,38.3,30.0,72,29.52,10.0,West,25.3,32.2,N/A,,Mostly Cloudy,260,2014-01-16 01:34:00
7:54 PM,38.5,30.2,72,29.53,10.0,West,25.3,34.5,N/A,,Scattered Clouds,270,2014-01-16 01:54:00
8:15 PM,39.2,30.7,72,29.50,10.0,West,25.3,33.4,N/A,,Clear,270,2014-01-16 02:15:00
8:34 PM,40.1,30.7,69,29.51,10.0,West,25.3,34.5,N/A,,Clear,270,2014-01-16 02:34:00
8:55 PM,40.1,30.6,69,29.50,10.0,West,28.8,35.7,N/A,,Clear,280,2014-01-16 02:55:00
9:14 PM,39.9,30.2,68,29.50,10.0,West,25.3,35.7,N/A,,Clear,280,2014-01-16 03:14:00
9:35 PM,39.6,30.7,71,29.51,10.0,West,25.3,36.8,N/A,,Clear,270,2014-01-16 03:35:00
9:55 PM,38.8,30.2,71,29.51,10.0,West,25.3,33.4,N/A,,Clear,280,2014-01-16 03:55:00
10:15 PM,38.7,29.1,69,29.51,10.0,WNW,25.3,29.9,N/A,,Clear,290,2014-01-16 04:15:00
10:35 PM,38.5,27.9,66,29.51,10.0,West,19.6,31.1,N/A,,Clear,280,2014-01-16 04:35:00
10:54 PM,37.9,28.0,68,29.50,10.0,West,23.0,28.8,N/A,,Clear,280,2014-01-16 04:54:00
11:14 PM,37.9,28.4,69,29.49,10.0,West,24.2,31.1,N/A,,Clear,280,2014-01-16 05:14:00
11:35 PM,37.4,28.4,70,29.48,10.0,West,21.9,28.8,N/A,,Clear,270,2014-01-16 05:35:00
11:55 PM,37.0,29.1,73,29.48,10.0,West,26.5,31.1,N/A,,Clear,280,2014-01-16 05:55:00